When you browse on this site, cookies collect data to enhance your experience and personalize the content and advertising you see.
Visit our Privacy Policy to learn more. By continuing to use the site, you agree to this use of cookies and data.
  • In Portugal
  • List of Countries
  • For 7 days
  • Water Temperature
  • Weather Map
  • Weather Widgets
  • user-avatar
    Login

    Hourly Weather Khulna

    Today, 18 October, Friday

    Time Temperature Precipitation Wind Pressure Humidity
    00:00 +25°C° 0 mm 0 mps 758 mmHg 79%
    01:00 +25°C° 0.1 mm 0 mps 758 mmHg 80%
    02:00 +25°C° 0.1 mm 0 mps 758 mmHg 82%
    03:00 +25°C° 0.1 mm 0 mps 758 mmHg 83%
    04:00 +25°C° 0 mm 0 mps 758 mmHg 84%
    05:00 +24°C° 0 mm 0 mps 758 mmHg 85%
    06:00 +24°C° 0 mm 0 mps 758 mmHg 89%
    07:00 +26°C° 0.7 mm 0 mps 759 mmHg 83%
    08:00 +28°C° 0.7 mm 0 mps 759 mmHg 77%
    09:00 +30°C° 0.7 mm 0 mps 760 mmHg 71%
    10:00 +31°C° 0.4 mm 0 mps 759 mmHg 66%
    11:00 +34°C° 0.4 mm 1 mps 759 mmHg 61%
    12:00 +34°C° 0 mm 1 mps 759 mmHg 56%
    13:00 +34°C° 0 mm 1 mps 758 mmHg 56%
    14:00 +34°C° 0 mm 1 mps 757 mmHg 57%
    15:00 +34°C° 0 mm 1 mps 757 mmHg 57%
    16:00 +33°C° 0 mm 1 mps 756 mmHg 62%
    17:00 +31°C° 0 mm 2 mps 756 mmHg 67%
    18:00 +30°C° 0 mm 2 mps 757 mmHg 72%
    19:00 +30°C° 0 mm 2 mps 757 mmHg 74%
    20:00 +29°C° 0 mm 2 mps 757 mmHg 76%
    21:00 +29°C° 0 mm 2 mps 758 mmHg 78%
    22:00 +28°C° 0 mm 2 mps 758 mmHg 79%
    23:00 +28°C° 0 mm 2 mps 758 mmHg 80%

    Tomorrow, 19 October, Saturday

    Time Temperature Precipitation Wind Pressure Humidity
    00:00 +28°C° 0 mm 2 mps 758 mmHg 82%
    01:00 +27°C° 0 mm 2 mps 758 mmHg 82%
    02:00 +27°C° 0 mm 2 mps 758 mmHg 82%
    03:00 +27°C° 0 mm 1 mps 758 mmHg 82%
    04:00 +27°C° 0 mm 1 mps 758 mmHg 82%
    05:00 +27°C° 0 mm 1 mps 758 mmHg 83%
    06:00 +26°C° 0 mm 1 mps 759 mmHg 83%
    07:00 +28°C° 0 mm 2 mps 759 mmHg 78%
    08:00 +30°C° 0 mm 2 mps 760 mmHg 73%
    09:00 +31°C° 0 mm 2 mps 760 mmHg 69%
    10:00 +32°C° 0 mm 2 mps 760 mmHg 65%
    11:00 +34°C° 0 mm 2 mps 760 mmHg 60%
    12:00 +35°C° 0 mm 2 mps 759 mmHg 56%
    13:00 +35°C° 0 mm 2 mps 758 mmHg 56%
    14:00 +35°C° 0 mm 2 mps 758 mmHg 56%
    15:00 +35°C° 0 mm 2 mps 757 mmHg 56%
    16:00 +34°C° 0 mm 2 mps 757 mmHg 60%
    17:00 +31°C° 0 mm 2 mps 757 mmHg 64%
    18:00 +30°C° 0 mm 2 mps 757 mmHg 68%
    19:00 +29°C° 0 mm 2 mps 757 mmHg 70%
    20:00 +29°C° 0 mm 2 mps 758 mmHg 71%
    21:00 +28°C° 0 mm 2 mps 758 mmHg 72%
    22:00 +28°C° 0 mm 2 mps 758 mmHg 73%
    23:00 +28°C° 0 mm 2 mps 758 mmHg 74%

    Day after tomorrow, 20 October, Sunday

    Time Temperature Precipitation Wind Pressure Humidity
    00:00 +27°C° 0 mm 2 mps 758 mmHg 75%
    01:00 +27°C° 0 mm 2 mps 758 mmHg 76%
    02:00 +27°C° 0 mm 2 mps 758 mmHg 76%
    03:00 +26°C° 0 mm 1 mps 758 mmHg 76%
    04:00 +26°C° 0 mm 1 mps 758 mmHg 77%
    05:00 +26°C° 0 mm 1 mps 758 mmHg 77%
    06:00 +26°C° 0 mm 1 mps 759 mmHg 77%
    07:00 +27°C° 0 mm 1 mps 759 mmHg 73%
    08:00 +29°C° 0 mm 2 mps 760 mmHg 68%
    09:00 +31°C° 0 mm 2 mps 760 mmHg 64%
    10:00 +32°C° 0 mm 2 mps 760 mmHg 61%
    11:00 +34°C° 0 mm 2 mps 759 mmHg 57%
    12:00 +35°C° 0 mm 2 mps 759 mmHg 54%
    13:00 +35°C° 0 mm 2 mps 758 mmHg 54%
    14:00 +35°C° 0 mm 2 mps 757 mmHg 53%
    15:00 +35°C° 0 mm 2 mps 756 mmHg 53%
    16:00 +34°C° 0 mm 2 mps 756 mmHg 57%
    17:00 +31°C° 0 mm 2 mps 756 mmHg 62%
    18:00 +30°C° 0 mm 1 mps 756 mmHg 67%
    19:00 +29°C° 0 mm 1 mps 757 mmHg 69%
    20:00 +29°C° 0 mm 1 mps 757 mmHg 70%
    21:00 +28°C° 0 mm 1 mps 758 mmHg 71%
    22:00 +28°C° 0 mm 1 mps 757 mmHg 72%
    23:00 +28°C° 0 mm 1 mps 757 mmHg 73%

    21 October, Monday

    Time Temperature Precipitation Wind Pressure Humidity
    00:00 +28°C° 0 mm 1 mps 757 mmHg 75%
    01:00 +27°C° 0 mm 1 mps 757 mmHg 76%
    02:00 +27°C° 0 mm 1 mps 757 mmHg 78%
    03:00 +27°C° 0 mm 1 mps 757 mmHg 80%
    04:00 +24°C° 0 mm 0 mps 757 mmHg 80%
    05:00 +24°C° 0 mm 0 mps 757 mmHg 81%
    06:00 +24°C° 0 mm 0 mps 757 mmHg 81%
    07:00 +26°C° 0 mm 0 mps 758 mmHg 76%
    08:00 +27°C° 0 mm 0 mps 758 mmHg 71%
    09:00 +29°C° 0 mm 0 mps 758 mmHg 66%
    10:00 +30°C° 0 mm 0 mps 758 mmHg 63%
    11:00 +33°C° 0 mm 1 mps 757 mmHg 61%
    12:00 +34°C° 0 mm 1 mps 757 mmHg 58%
    13:00 +34°C° 1 mm 2 mps 756 mmHg 62%
    14:00 +34°C° 1 mm 2 mps 755 mmHg 66%
    15:00 +33°C° 1 mm 3 mps 755 mmHg 70%
    16:00 +31°C° 0.9 mm 2 mps 755 mmHg 74%
    17:00 +29°C° 0.9 mm 2 mps 755 mmHg 79%
    18:00 +28°C° 0.9 mm 1 mps 755 mmHg 83%
    19:00 +28°C° 0 mm 1 mps 756 mmHg 83%
    20:00 +26°C° 0 mm 0 mps 756 mmHg 83%
    21:00 +26°C° 0 mm 0 mps 756 mmHg 83%
    22:00 +27°C° 0 mm 1 mps 756 mmHg 84%
    23:00 +27°C° 0 mm 1 mps 756 mmHg 84%

    22 October, Tuesday

    Time Temperature Precipitation Wind Pressure Humidity
    00:00 +27°C° 0 mm 1 mps 756 mmHg 85%
    01:00 +27°C° 0 mm 1 mps 756 mmHg 85%
    02:00 +27°C° 0 mm 1 mps 756 mmHg 86%
    03:00 +26°C° 0 mm 1 mps 755 mmHg 86%
    04:00 +26°C° 0 mm 1 mps 756 mmHg 86%
    05:00 +26°C° 0 mm 1 mps 756 mmHg 85%
    06:00 +25°C° 0 mm 1 mps 756 mmHg 84%
    07:00 +27°C° 0 mm 1 mps 757 mmHg 78%
    08:00 +28°C° 0 mm 2 mps 757 mmHg 72%
    09:00 +30°C° 0 mm 2 mps 758 mmHg 66%
    10:00 +31°C° 0 mm 2 mps 757 mmHg 63%
    11:00 +32°C° 0 mm 2 mps 757 mmHg 60%
    12:00 +34°C° 0 mm 2 mps 756 mmHg 57%
    13:00 +34°C° 0 mm 2 mps 756 mmHg 57%
    14:00 +34°C° 0 mm 2 mps 755 mmHg 58%
    15:00 +34°C° 0 mm 2 mps 754 mmHg 58%
    16:00 +32°C° 0 mm 2 mps 754 mmHg 62%
    17:00 +30°C° 0 mm 2 mps 754 mmHg 65%
    18:00 +29°C° 0 mm 1 mps 754 mmHg 69%
    19:00 +29°C° 0 mm 1 mps 755 mmHg 69%
    20:00 +28°C° 0 mm 1 mps 755 mmHg 69%
    21:00 +28°C° 0 mm 1 mps 756 mmHg 69%
    22:00 +28°C° 0 mm 1 mps 756 mmHg 70%
    23:00 +27°C° 0 mm 1 mps 756 mmHg 70%

    23 October, Wednesday

    Time Temperature Precipitation Wind Pressure Humidity
    00:00 +27°C° 0 mm 1 mps 755 mmHg 70%
    01:00 +27°C° 0 mm 1 mps 755 mmHg 71%
    02:00 +26°C° 0 mm 1 mps 755 mmHg 73%
    03:00 +26°C° 0 mm 1 mps 755 mmHg 74%
    04:00 +26°C° 0 mm 1 mps 755 mmHg 74%
    05:00 +25°C° 0 mm 1 mps 755 mmHg 75%
    06:00 +25°C° 0 mm 1 mps 755 mmHg 75%
    07:00 +27°C° 0 mm 1 mps 756 mmHg 71%
    08:00 +28°C° 0 mm 1 mps 757 mmHg 67%
    09:00 +30°C° 0 mm 2 mps 757 mmHg 63%
    10:00 +31°C° 0 mm 1 mps 757 mmHg 59%
    11:00 +32°C° 0 mm 1 mps 757 mmHg 55%
    12:00 +34°C° 0 mm 1 mps 756 mmHg 52%
    13:00 +34°C° 0 mm 1 mps 755 mmHg 51%
    14:00 +34°C° 0 mm 1 mps 755 mmHg 51%
    15:00 +34°C° 0 mm 1 mps 754 mmHg 50%
    16:00 +32°C° 0 mm 1 mps 754 mmHg 55%
    17:00 +31°C° 0 mm 1 mps 754 mmHg 60%
    18:00 +29°C° 0 mm 2 mps 754 mmHg 65%
    19:00 +29°C° 0 mm 1 mps 755 mmHg 65%
    20:00 +28°C° 0 mm 1 mps 755 mmHg 66%
    21:00 +28°C° 0 mm 1 mps 756 mmHg 67%
    22:00 +27°C° 0 mm 1 mps 756 mmHg 68%
    23:00 +27°C° 0 mm 1 mps 756 mmHg 69%
    Show more